Regional Weather Roundup
Issued by NWS

Home | Current Version | Previous Version | Text Only | Print | Product List | Glossary Off
Versions: 1 2 3 4 5 6 7 8 9 10 11 12 13 14 15 16 17 18 19 20 21 22 23 24 25 26 27 28 29 30 31 32 33 34 35 36 37 38 39 40 41 42 43 44 45 46 47 48 49 50

000
ASUS43 KOAX 201102
RWRNE

WEATHER ROUNDUP FOR NEBRASKA
NATIONAL WEATHER SERVICE OMAHA NE
600 AM CDT SUN AUG 20 2017

NOTES: SATELLITE DATA IS BEING USED TO AUGMENT CLOUD COVER ABOVE
       12000 FEET.
       "FAIR" INDICATES FEW OR NO CLOUDS BELOW 12,000 FEET WITH NO
       SIGNIFICANT WEATHER AND/OR OBSTRUCTIONS TO VISIBILITY.


NEZ001>004-019>022-054>056-201200-
NEBRASKA PANHANDLE

CITY           SKY/WX    TMP DP  RH WIND       PRES   REMARKS
SCOTTSBLUFF    CLEAR     57  45  64 NW7       29.98R
ALLIANCE       CLEAR     54  46  74 N12       29.97R
CHADRON        CLEAR     50  45  83 W6        30.00R
GORDON         FAIR      63  52  67 NE16G22   29.98S
KIMBALL        CLEAR     56  42  58 W12       30.02S
SIDNEY         CLEAR     54  50  86 NW8       29.98S
$$

NEZ057>060-069>072-079>082-201200-
SOUTHWEST NEBRASKA

CITY           SKY/WX    TMP DP  RH WIND       PRES   REMARKS
NORTH PLATTE   CLEAR     62  61  96 E5        29.87S
IMPERIAL       CLEAR     60  55  83 CALM      29.91R
LEXINGTON      CLEAR     65  62  91 SE7       29.86S
MCCOOK         CLEAR     65  57  75 SW7       29.88R
OGALLALA       CLEAR     58  56  95 W5        29.91R
$$

NEZ005>010-023>029-035>040-094-201200-
NORTH CENTRAL NEBRASKA

CITY           SKY/WX    TMP DP  RH WIND       PRES   REMARKS
VALENTINE      CLOUDY    70  65  84 NE17G26   29.94R
AINSWORTH      CLEAR     62  60  95 E3        29.94S
BROKEN BOW     CLEAR     64  60  87 SE6       29.88R
O`NEILL        CLEAR     61  59  93 CALM      29.91R
ORD            CLEAR     62  57  83 SE3       29.88R
THEDFORD       CLEAR     55  54  96 N13G20    29.95R
$$

NEZ041-046>049-061>064-073>077-083>087-201200-
SOUTH CENTRAL NEBRASKA

CITY           SKY/WX    TMP DP  RH WIND       PRES   REMARKS
GRAND ISLAND   CLEAR     64  62  93 SE13      29.89S
AURORA         PTCLDY    65  61  87 SE12      29.89F
HASTINGS       CLEAR     65  61  87 SE10      29.90S
HEBRON         CLEAR     66  63  88 E7        29.90S
HOLDREGE       CLEAR     65  62  92 SE9       29.87S
KEARNEY        CLEAR     65  62  90 SE8       29.89R
$$

NEZ011>018-030>034-042>045-201200-
NORTHEAST NEBRASKA

CITY           SKY/WX    TMP DP  RH WIND       PRES   REMARKS
NORFOLK        CLOUDY    66  60  81 SE5       29.87F
ALBION         CLOUDY    64  60  87 S5        29.89S
BLAIR          RAIN      69  66  88 SE6       29.86S
COLUMBUS       CLOUDY    65  61  87 SE9       29.88F
FREMONT        CLOUDY    71  63  75 SW13G18   29.90R
TEKAMAH        CLOUDY    67  64  90 S5        29.86R
WAYNE          CLOUDY    65  62  91 S5        29.86R
$$

NEZ050>053-065>068-078-088>093-201200-
SOUTHEAST NEBRASKA

CITY           SKY/WX    TMP DP  RH WIND       PRES   REMARKS
LINCOLN        TSTM      67  62  84 SW13G25   29.95S
OMAHA EPPLEY   CLOUDY    70  65  84 S12       29.85F
BEATRICE       PTCLDY    65  64  93 N13G20    29.95R
FALLS CITY     CLOUDY    68  66  93 S9        29.92R
NEBRASKA CITY  CLOUDY    67  67 100 NW10G22   29.95R
PLATTSMOUTH    CLOUDY    67  64  89 W13       29.93R
$$

NEZ044-045-051>053-067-201200-
OMAHA AREA

CITY           SKY/WX    TMP DP  RH WIND       PRES   REMARKS
OMAHA EPPLEY   CLOUDY    70  65  84 S12       29.85F
BLAIR          RAIN      69  66  88 SE6       29.86S
FREMONT        CLOUDY    71  63  75 SW13G18   29.90R
MILLARD        CLOUDY    70  66  85 SE15G25   29.84F
OFFUTT AFB     LGT RAIN  68  65  90 S18       29.87F
PLATTSMOUTH    CLOUDY    67  64  89 W13       29.93R
WAHOO          LGT RAIN  68  62  82 CALM      29.89R
$$




USA.gov is the U.S. government's official web portal to all federal, state and local government web resources and services.